Guymon, OK

5:09 PM CDT on May 20, 2018 (GMT -0500)
Guymon Municipal

Weather History for KGUY - August, 2014

Change the Weather History Date:

Friday, August 22, 2014

  Actual Average Record
Temperature  
Mean Temperature 86 °F 78 °F  
Max Temperature 102 °F 91 °F 102 °F (2011)
Min Temperature 69 °F 64 °F 59 °F (2012)
Degree Days  
Heating Degree Days 0 0  
Month to date heating degree days 0 0  
Since 1 June heating degree days 9 8  
Since 1 July heating degree days 4 0  
Cooling Degree Days 21 13  
Month to date cooling degree days 354 300  
Year to date cooling degree days 1307 1142  
Since 1 June cooling degree days 1129 1034  
Growing Degree Days 35 (Base 50)    
Moisture  
Dew Point 59 °F    
Average Humidity 49    
Maximum Humidity 78    
Minimum Humidity 20    
Precipitation  
Precipitation 0.08 in 0.11 in 1.00 in (2005)
Month to date precipitation 0.43 2.05  
Year to date precipitation 8.14 13.90  
Snow  
Snow 0.00 in - - ()
Month to date snowfall 0.0  
Since 1 June snowfall 0.0  
Since 1 July snowfall 0.0  
Snow Depth 0.00 in    
Sea Level Pressure  
Sea Level Pressure 29.80 in    
Wind  
Wind Speed 15 mph (South)    
Max Wind Speed 43 mph    
Max Gust Speed 53 mph    
Visibility 10 miles    
Events Rain , Thunderstorm    
T = Trace of Precipitation, MM = Missing Value Source: NWS Daily Summary

Daily Weather History Graph

Daily Weather History Graph

Search for Another Location

Airport or City:

Astronomy

Aug. 22, 2014 Rise Set
Actual Time 7:09 AM CDT 8:28 PM CDT
Civil Twilight 6:42 AM CDT 8:54 PM CDT
Nautical Twilight 6:09 AM CDT 9:27 PM CDT
Astronomical Twilight 5:35 AM CDT 10:00 PM CDT
Moon 4:35 AM CDT (8/22) 6:36 PM CDT (8/22)
Length of Visible Light 14h 12m
Length of Day
13h 18m
Waning Crescent, 7% of the Moon is Illuminated
Aug 22
Waning Crescent
Aug 25
New
Sep 2
First Quarter
Sep 8
Full
Sep 15
Last Quarter

Hourly Weather History & Observations

Time (CDT) Temp. Heat Index Dew Point Humidity Pressure Visibility Wind Dir Wind Speed Gust Speed Precip Events Conditions
12:53 AM 73.0 °F - 61.0 °F 66% 29.79 in 10.0 mi SW 4.6 mph - N/A   Clear
1:53 AM 73.0 °F - 61.0 °F 66% 29.78 in 10.0 mi South 6.9 mph - N/A   Clear
2:53 AM 77.0 °F - 62.1 °F 60% 29.77 in 10.0 mi South 4.6 mph - N/A   Clear
4:53 AM 73.0 °F - 62.1 °F 68% 29.77 in 10.0 mi South 5.8 mph - N/A   Clear
5:53 AM 70.0 °F - 62.1 °F 76% 29.79 in 10.0 mi South 5.8 mph - N/A   Clear
6:53 AM 70.0 °F - 62.1 °F 76% 29.82 in 10.0 mi SSW 8.1 mph - N/A   Clear
7:53 AM 73.9 °F - 61.0 °F 64% 29.83 in 10.0 mi SSW 8.1 mph - N/A   Clear
8:53 AM 77.0 °F - 61.0 °F 58% 29.85 in 10.0 mi South 9.2 mph - N/A   Partly Cloudy
9:53 AM 86.0 °F 85.7 °F 60.1 °F 41% 29.82 in 10.0 mi SW 13.8 mph - N/A   Clear
11:53 AM 95.0 °F 94.4 °F 59.0 °F 30% 29.80 in 10.0 mi SSW 16.1 mph - N/A   Clear
12:53 PM 98.1 °F 97.2 °F 57.9 °F 26% 29.78 in 10.0 mi South 16.1 mph 25.3 mph N/A   Clear
1:53 PM 98.1 °F 97.2 °F 57.9 °F 26% 29.78 in 10.0 mi South 11.5 mph 24.2 mph N/A   Clear
2:53 PM 100.0 °F 98.8 °F 55.9 °F 23% 29.74 in 10.0 mi South 20.7 mph - N/A   Clear
4:53 PM 100.9 °F 98.7 °F 53.1 °F 20% 29.69 in 10.0 mi South 18.4 mph 29.9 mph N/A   Clear
5:53 PM 93.9 °F 92.2 °F 55.9 °F 28% 29.70 in 10.0 mi SSW 31.1 mph 42.6 mph N/A   Scattered Clouds
6:19 PM 91.0 °F 89.2 °F 55.9 °F 30% 29.87 in 10.0 mi South 24.2 mph 32.2 mph N/A   Partly Cloudy
6:53 PM 91.9 °F 89.5 °F 54.0 °F 27% 29.72 in 10.0 mi South 15.0 mph 25.3 mph N/A   Clear
7:53 PM 90.0 °F 88.8 °F 57.9 °F 34% 29.71 in 10.0 mi South 12.7 mph - N/A   Clear
8:43 PM 86.0 °F 85.0 °F 57.9 °F 38% 29.90 in 10.0 mi SSW 27.6 mph 35.7 mph N/A Thunderstorm Clear
8:53 PM 82.0 °F 81.7 °F 57.0 °F 42% 29.74 in 10.0 mi SSW 28.8 mph 39.1 mph N/A   Clear
9:12 PM 82.9 °F 81.9 °F 54.0 °F 37% 29.92 in 8.0 mi Variable 6.9 mph 35.7 mph 0.05 in Rain , Thunderstorm Light Thunderstorms and Rain
9:29 PM 82.9 °F 82.4 °F 57.0 °F 41% 29.92 in 10.0 mi SSW 11.5 mph 24.2 mph 0.05 in Rain Light Rain
9:53 PM 80.1 °F 81.2 °F 62.1 °F 54% 29.75 in 10.0 mi South 6.9 mph - 0.05 in   Scattered Clouds
10:34 PM 79.0 °F - 61.0 °F 54% 29.93 in 10.0 mi South 10.4 mph - N/A Thunderstorm Partly Cloudy
10:53 PM 78.1 °F - 62.1 °F 58% 29.77 in 10.0 mi SSE 11.5 mph - N/A Thunderstorm Scattered Clouds
11:44 PM 77.0 °F - 63.0 °F 62% 29.95 in 10.0 mi South 27.6 mph 35.7 mph N/A   Mostly Cloudy
11:53 PM 78.1 °F - 60.1 °F 54% 29.78 in 10.0 mi SSW 34.5 mph 43.7 mph N/A   Scattered Clouds